Theta_e
308 311 313 313 314 314 315 314 316 316 316 319 318 320 320 320 319 319 320 320 322 337 344 348 349 348 346 345 335 333 331 328 326 324 327 331 333 336 338 340 342 337 346 347
311 312 311 311 312 314 317 314 316 317 317 318 320 319 320 320 321 319 320 320 322 336 345 350 349 348 347 343 337 333 333 330 325 325 334 335 337 342 345 347 347 348 347 346
312 313 312 312 311 317 316 317 319 319 317 317 319 321 319 320 320 320 320 320 321 333 346 349 350 348 348 347 343 341 335 332 327 326 332 333 346 348 348 345 343 347 346 344
313 313 314 314 316 316 315 315 320 324 319 316 319 321 321 320 320 321 320 321 328 335 342 348 350 349 349 349 348 347 342 334 330 331 342 338 344 346 347 343 344 345 345 344
316 315 315 316 315 315 313 317 321 322 317 318 319 321 321 320 319 320 322 322 325 334 341 345 348 349 349 349 348 348 346 341 337 339 344 343 345 346 343 339 338 342 342 340
316 314 315 317 316 315 315 317 323 322 320 320 320 320 321 320 321 322 322 322 326 334 341 345 346 348 348 348 347 347 346 346 345 342 342 342 345 341 339 335 336 337 338 336
318 317 316 317 318 317 318 322 323 321 321 320 320 319 323 320 321 323 323 323 328 335 341 346 347 347 348 348 348 347 347 345 344 343 344 344 344 340 339 336 335 335 334 335
321 321 319 318 319 318 319 323 321 320 319 320 320 319 323 323 321 320 322 324 329 334 339 345 347 347 347 348 347 347 346 348 345 345 345 344 344 341 340 337 337 336 337 336
322 320 317 319 318 318 320 324 322 324 321 321 319 321 324 324 322 322 323 324 328 332 336 341 346 347 348 348 347 347 347 347 346 344 342 341 339 342 340 336 336 335 336 334
320 322 317 317 318 319 321 320 320 323 321 321 320 322 325 324 323 324 324 326 330 334 337 339 343 346 347 347 347 346 345 345 344 343 340 338 337 336 337 336 336 336 335 333
321 322 318 318 319 320 319 322 322 325 326 323 323 326 330 332 331 328 324 325 330 335 338 340 342 344 344 344 344 344 343 343 342 340 338 337 335 336 337 337 335 333 331 328
322 323 320 318 319 319 318 320 322 324 323 325 322 331 331 332 332 331 330 330 332 335 338 340 342 342 342 342 343 340 341 342 337 335 337 337 336 335 337 334 330 327 327 323
322 325 322 320 319 318 320 320 321 323 324 325 325 328 329 330 331 332 331 330 330 338 339 340 342 342 342 341 341 338 340 337 337 337 336 336 336 336 333 330 328 324 321 322
320 324 325 324 319 319 320 320 321 322 323 322 324 326 329 331 332 333 333 333 330 332 340 340 342 342 339 336 338 337 337 337 337 336 335 335 335 331 327 324 324 322 322 322
320 325 324 322 321 319 319 320 319 321 321 321 322 322 331 332 331 331 332 333 329 328 334 337 340 341 336 335 335 336 335 336 336 336 336 335 334 330 327 325 323 322 322 322
318 320 323 323 321 320 319 319 320 320 320 321 323 327 331 329 328 329 328 328 331 330 332 337 339 337 333 333 333 333 334 334 333 331 331 330 327 326 324 325 323 322 322 317
316 321 324 324 321 321 320 319 319 320 320 321 324 329 330 329 327 322 322 322 319 327 334 334 334 333 333 334 332 332 330 329 328 327 325 323 323 323 322 322 323 320 314 309
316 320 323 327 324 323 324 323 320 320 320 321 325 328 330 324 316 314 314 314 318 323 328 330 331 332 331 330 328 324 325 324 323 319 318 321 321 321 323 322 316 314 307 305
314 316 325 327 326 323 324 327 326 326 325 326 324 329 323 319 317 311 310 313 314 319 325 328 329 329 325 324 322 323 323 322 322 320 317 315 319 321 317 313 309 306 305 305
315 315 320 325 325 326 327 326 326 326 326 328 328 328 324 325 332 317 309 312 313 316 320 323 325 326 327 321 321 321 319 319 317 316 317 316 313 313 314 309 305 304 304 303
319 319 323 323 327 327 325 325 325 326 330 324 326 327 327 329 326 311 310 310 311 314 318 321 323 324 321 319 320 320 317 316 312 313 309 310 311 310 306 305 304 304 302 302
321 323 325 326 326 328 322 324 327 324 323 323 325 327 321 317 312 307 309 310 310 312 314 317 318 317 318 319 321 317 317 310 309 310 312 310 307 304 304 304 302 301 301 301
321 315 318 323 324 321 321 318 318 320 321 323 325 321 317 315 310 306 306 307 309 311 312 313 316 315 314 315 318 318 314 312 309 310 308 304 303 302 300 300 300 300 300 301
316 316 319 321 318 317 319 318 318 319 319 322 322 320 316 313 309 306 308 307 308 311 312 310 311 312 312 312 313 313 311 310 308 308 307 305 303 299 299 298 298 298 298 299
315 316 318 320 316 317 316 316 317 319 317 320 319 316 313 312 310 307 306 307 305 305 306 307 308 308 308 309 310 310 308 306 306 305 303 302 301 298 297 296 295 293 292 293
315 316 318 319 316 316 316 315 317 317 316 316 316 315 313 312 309 307 304 307 306 306 307 308 307 306 305 304 303 302 302 302 302 302 301 300 299 298 296 294 291 291 290 291
Wind_Speed
9 10 13 19 19 20 22 20 21 18 22 19 30 25 25 14 11 24 27 28 22 19 19 23 26 26 26 27 32 30 29 31 30 31 28 24 21 18 15 14 16 17 14 17
6 13 15 6 8 18 27 19 21 18 18 23 17 26 26 25 19 15 23 28 26 21 20 24 26 27 27 29 29 32 34 31 32 30 24 23 20 14 12 12 13 16 23 23
13 6 11 11 14 19 24 17 16 19 22 24 13 19 24 27 25 21 17 26 28 26 24 25 26 28 26 27 31 31 33 31 31 30 26 23 19 16 21 23 22 24 23 23
9 5 11 14 16 21 19 21 10 22 16 15 20 12 22 26 24 23 23 26 28 27 25 25 26 27 27 25 23 23 28 31 31 28 22 23 16 14 14 18 17 18 21 23
3 5 11 14 17 17 12 7 16 16 16 18 21 12 21 21 20 26 23 28 30 27 26 28 28 26 24 22 21 19 21 26 26 25 20 19 15 17 16 13 15 19 20 17
14 9 10 15 11 13 10 12 25 13 12 13 18 19 13 21 26 25 24 28 29 27 25 26 27 24 21 20 21 20 21 21 23 22 20 18 17 16 17 16 19 20 21 21
10 16 13 13 12 13 5 7 8 10 8 11 16 13 8 22 20 21 22 27 26 26 26 26 28 27 23 22 21 22 22 21 21 20 18 17 15 17 18 17 17 20 20 20
5 4 14 12 10 9 17 16 5 14 11 10 12 9 6 3 16 24 23 24 23 24 26 26 28 27 26 26 25 21 20 19 18 18 17 16 16 18 15 17 20 16 17 21
5 1 8 11 11 11 15 19 10 6 3 11 10 4 6 7 13 14 17 24 24 23 24 26 27 26 25 24 22 20 19 17 15 16 19 17 17 14 14 16 15 20 24 25
6 3 8 8 10 11 15 8 4 5 7 10 8 9 11 13 13 13 19 16 20 20 21 23 25 25 23 21 19 17 16 16 14 13 15 14 14 16 16 16 18 22 21 17
8 4 9 8 9 13 9 9 5 6 6 1 8 8 6 9 6 8 17 22 19 20 22 24 23 23 22 19 17 16 14 14 13 14 13 12 12 11 16 19 25 21 18 15
6 4 5 11 9 9 10 9 8 2 2 6 2 7 7 8 8 5 11 10 12 18 20 21 21 21 20 18 16 16 13 12 11 9 7 8 12 16 18 23 20 19 16 15
8 3 4 6 6 8 10 7 6 4 7 6 2 8 2 9 9 10 7 10 13 14 19 19 19 19 18 18 19 17 17 16 14 12 13 13 12 15 18 21 21 19 17 18
5 6 6 5 6 13 10 7 8 8 3 1 12 12 5 7 10 11 11 6 8 15 17 19 20 20 21 22 26 24 21 18 16 15 15 17 17 19 21 19 18 15 15 7
8 5 11 7 1 4 8 11 9 9 4 4 7 4 7 6 8 10 14 9 5 15 17 18 20 20 22 25 26 23 22 19 17 17 16 15 17 19 19 16 10 13 7 5
11 3 6 3 2 7 8 8 9 8 3 5 2 6 6 5 7 10 12 14 14 8 14 17 22 28 27 27 27 26 23 18 11 9 11 16 19 24 17 14 15 10 11 8
8 7 5 2 0 8 9 10 8 5 6 3 2 10 8 6 8 11 9 10 12 14 21 22 26 29 28 27 25 21 21 19 16 16 19 24 22 22 19 15 13 9 6 6
9 11 6 4 4 10 9 8 8 7 2 3 1 4 8 10 11 11 10 7 13 20 23 27 29 28 29 33 29 27 27 28 31 31 28 26 24 20 17 10 8 5 4 3
10 6 5 4 5 6 8 12 6 6 6 12 5 8 11 14 12 12 8 11 15 21 26 28 30 37 39 37 32 28 28 28 29 29 24 19 16 15 13 11 8 6 5 3
4 7 5 5 4 2 8 14 9 5 5 14 10 8 10 14 5 2 7 14 19 25 28 31 34 38 40 35 30 31 30 28 28 24 23 18 13 11 9 8 6 6 4 4
2 3 5 3 4 5 13 13 5 8 5 18 14 4 12 5 8 19 15 18 20 23 27 31 34 37 36 30 26 28 28 26 25 23 19 16 11 10 10 6 5 5 7 6
4 4 2 4 3 3 21 8 7 11 18 14 14 9 17 19 19 20 20 20 21 23 24 26 31 34 30 25 25 29 26 23 18 16 16 14 12 11 11 8 10 9 9 8
2 2 4 5 3 7 11 12 15 20 18 12 6 19 21 23 21 21 22 21 24 27 30 31 33 32 28 24 19 24 24 22 20 15 12 14 12 12 12 12 11 9 8 7
7 2 3 8 6 16 8 20 21 18 19 12 15 19 22 27 22 22 25 24 27 29 32 30 31 30 29 24 21 20 21 17 15 16 15 13 11 13 11 11 10 9 8 8
7 9 6 4 5 11 10 22 29 15 12 12 17 20 25 27 24 23 25 25 24 26 27 25 24 23 24 22 20 19 18 17 16 14 15 14 11 11 10 11 12 12 12 10
2 1 3 2 7 6 13 19 22 11 5 10 17 18 21 23 26 26 24 27 25 21 21 19 19 20 21 20 19 18 16 16 16 16 14 13 11 10 10 11 14 16 16 15
Wind_Direction
198 221 235 240 240 240 263 237 230 233 223 216 225 228 225 219 214 221 217 214 210 200 195 192 189 191 190 192 200 195 203 193 194 194 196 193 192 191 195 200 201 201 195 201
200 234 263 249 262 276 256 237 238 221 223 227 230 226 234 224 235 225 217 210 206 192 187 189 188 188 191 194 195 200 202 196 198 196 192 192 189 193 197 204 202 202 209 215
252 267 211 237 229 251 238 225 237 227 214 213 227 232 214 226 224 228 221 209 202 196 187 186 188 188 188 193 195 197 200 200 199 204 195 193 193 182 201 210 207 208 219 221
268 203 239 243 226 234 212 226 237 261 202 193 216 216 205 217 217 222 207 199 196 195 190 186 185 187 191 194 192 196 197 199 200 200 193 204 194 194 203 218 217 221 230 227
265 239 239 231 237 230 226 316 246 246 187 208 185 249 183 202 205 207 210 197 197 193 190 188 188 187 186 186 185 190 193 196 198 199 197 201 186 201 208 200 212 215 210 205
255 209 235 252 269 225 138 244 247 212 187 214 176 225 153 185 196 198 199 195 192 189 187 188 188 187 187 193 183 194 192 188 192 196 195 193 195 199 210 217 215 218 223 227
207 225 228 246 231 201 207 227 180 183 191 202 174 214 21 191 195 197 192 184 186 185 181 182 183 186 188 186 180 190 189 192 197 197 200 200 203 218 235 237 234 235 227 222
288 198 203 183 229 173 208 226 298 173 187 127 157 219 122 285 181 200 191 175 179 183 180 182 182 182 183 183 184 186 184 186 191 196 202 207 212 233 225 233 244 223 205 191
316 98 165 168 208 228 209 220 257 314 336 142 172 158 115 146 158 191 192 181 179 180 181 180 182 183 182 183 183 183 186 191 198 204 215 220 229 209 209 224 211 211 194 190
286 264 180 168 225 237 268 219 201 229 180 147 173 171 106 141 161 175 191 174 170 176 176 180 184 184 182 182 182 182 189 196 201 202 223 215 227 229 219 214 213 199 195 178
276 281 148 167 212 201 207 220 266 319 319 146 152 110 43 82 81 141 171 180 169 174 174 173 174 177 176 175 177 175 176 182 189 211 227 233 235 218 205 203 190 181 170 177
317 302 207 196 169 263 226 262 231 325 144 7 179 92 69 61 86 117 139 160 161 169 168 168 167 164 164 161 160 167 152 158 176 182 176 190 188 188 200 189 169 160 175 157
335 276 206 171 182 211 254 221 260 12 301 24 245 119 90 35 47 57 81 123 148 155 156 158 156 156 151 151 148 142 148 150 147 155 163 170 175 191 184 172 161 162 159 157
271 285 322 346 57 163 212 234 228 231 265 106 62 123 151 41 23 19 22 64 134 151 151 152 153 149 146 140 146 150 145 151 154 151 158 159 163 167 163 156 150 145 144 160
2 330 328 324 71 229 204 190 193 221 304 273 70 81 84 58 33 14 4 15 107 143 147 149 149 143 149 151 148 151 150 151 149 157 167 173 178 176 159 143 136 135 131 203
342 293 290 272 262 219 229 204 197 222 188 254 323 101 85 66 50 43 28 34 44 107 137 134 134 150 151 150 149 143 138 145 157 163 167 163 165 158 150 144 138 161 188 212
301 328 5 270 181 176 214 215 196 199 234 297 233 76 121 81 57 34 33 52 67 78 112 131 142 151 151 145 133 129 128 120 117 120 127 136 139 143 143 149 162 177 201 225
279 319 315 298 292 184 64 15 270 232 250 131 25 94 82 104 85 54 44 73 100 110 125 136 143 144 141 132 130 125 123 129 133 134 138 146 145 145 148 168 154 157 190 217
230 285 303 310 305 123 84 26 357 343 94 13 341 102 124 127 102 48 57 111 117 124 133 138 145 144 139 136 132 134 135 139 142 141 136 132 141 150 140 131 134 151 152 157
173 246 307 327 295 24 17 348 341 215 180 21 349 146 172 173 169 116 114 128 127 130 136 142 145 148 145 142 144 140 139 139 135 133 132 134 133 128 126 131 137 131 137 112
177 205 264 293 261 119 353 346 313 225 29 339 337 251 183 181 66 139 140 130 134 135 138 143 147 149 144 140 141 137 136 131 128 128 127 127 129 124 116 116 140 128 96 85
11 324 266 283 251 82 354 13 17 329 320 318 306 184 110 115 117 126 134 133 134 133 137 146 147 142 139 139 139 129 127 119 120 130 132 129 120 116 118 134 99 89 88 87
24 108 301 326 29 346 61 20 346 337 326 322 94 124 136 135 131 130 130 130 133 133 132 133 132 130 129 130 127 132 127 131 135 134 130 118 114 111 99 96 91 78 79 85
326 225 258 315 4 334 271 1 351 342 334 315 154 143 144 138 134 132 137 135 132 134 134 129 128 127 126 128 130 130 129 132 136 130 125 119 115 98 96 86 85 90 78 64
272 312 322 302 10 335 351 352 351 346 5 103 137 147 143 139 139 137 136 137 133 126 125 124 120 122 122 126 127 123 123 127 125 120 112 108 114 112 109 113 97 76 81 89
244 275 324 339 357 323 320 335 348 350 51 123 133 138 139 144 143 143 139 138 135 129 121 113 123 122 120 118 118 122 125 123 118 116 114 122 123 118 106 95 84 78 70 68